Location: Cutler
(25.6150°N, 80.3110°W)
Time: 17:29:09
(UTC-05:00)

N. Korean satellite - Pass Details

Date: 10 November 2017
Orbit: 460 x 514 km, 97.2° (Epoch: 22 November)

Event Time Altitude Azimuth Distance (km) Brightness Sun altitude
Rises 18:42:22 0° 175° (S) 2,470 10.3 -15.6°
Reaches altitude 10° 18:44:25 10° 179° (S) 1,598 9.3 -16.0°
Maximum altitude 18:47:48 59° 260° (W) 536 7.0 -16.7°
Drops below altitude 10° 18:51:12 10° 340° (NNW) 1,609 9.3 -17.5°
Sets 18:53:16 0° 345° (NNW) 2,491 10.2 -18.0°
